{"data":{"norad_id":42959,"intl_designator":"2017-061E","name":"IRIDIUM 119","alt_names":[],"object_type":"PAYLOAD","status":"ACTIVE","operator":null,"country":"US","launch_date":"2017-10-09","launch_site_code":"AFWTR","launch_vehicle":null,"mission":null,"orbit_class":"UNKNOWN","rcs_meters":null,"size_class":null,"mass_kg":null,"dimensions":null,"purposes":["comms"],"wikipedia_slug":null,"has_3d_model":false,"image_url":null,"decayed_at":null,"tle_current":{"epoch":"2026-05-25T02:28:26.752224Z","epoch_age_seconds":60001,"freshness":"FRESH","line1":"1 42959U 17061E   26145.10308741  .00000004  00000+0 -56858-5 0  9997","line2":"2 42959  86.3985  34.8984 0002238  84.9173 275.2278 14.34217458451500","mean_motion":14.34217458,"eccentricity":0.0002238,"inclination_deg":86.3985,"raan_deg":34.8984,"arg_perigee_deg":84.9173,"mean_anomaly_deg":275.2278,"bstar":-5.6858e-6,"rev_number":45150,"period_min":100.40318446605,"perigee_km":776.06665642529,"apogee_km":779.26959479951,"semimajor_km":7155.8051256124,"source":"CELESTRAK","updated_at":"2026-05-25T13:38:14.802947Z"}}}